| time (UTC) | temp F | wind direction | speed knots | gust knots | rain 1hr in | rain 24hr in | rain mn in | humidity % | barometer mb |
| 20260506034028 | 44 | 13 | 1.7 | 5.2 | 0.00 | 0.00 | 0.00 | 97 | 1011.9 |
| 20260506033529 | 44 | 18 | 3.5 | 5.2 | 0.00 | 0.00 | 0.00 | 97 | 1011.9 |
| 20260506033028 | 44 | 353 | 1.7 | 6.1 | 0.00 | 0.00 | 0.00 | 97 | 1011.6 |
| 20260506032528 | 44 | 13 | 3.5 | 6.1 | 0.00 | 0.00 | 0.00 | 97 | 1011.5 |
| 20260506032028 | 44 | 6 | 1.7 | 7.0 | 0.00 | 0.00 | 0.00 | 97 | 1011.6 |
| 20260506031528 | 44 | 17 | 3.5 | 7.0 | 0.00 | 0.00 | 0.00 | 97 | 1011.1 |
| 20260506031028 | 44 | 24 | 3.5 | 7.0 | 0.00 | 0.00 | 0.00 | 97 | 1011.3 |
| 20260506030529 | 44 | 13 | 3.5 | 7.8 | 0.00 | 0.00 | 0.00 | 97 | 1011.1 |
| 20260506030031 | 44 | 34 | 2.6 | 7.0 | 0.00 | 0.00 | 0.00 | 97 | 1011.0 |
| 20260506025529 | 44 | 15 | 2.6 | 5.2 | 0.00 | 0.00 | 0.00 | 97 | 1011.0 |
| 20260506025029 | 44 | 8 | 2.6 | 6.1 | 0.00 | 0.00 | 0.00 | 97 | 1011.0 |
| 20260506024531 | 44 | 15 | 3.5 | 6.1 | 0.00 | 0.00 | 0.00 | 97 | 1010.9 |
| 20260506023542 | 44 | 17 | 3.5 | 7.8 | 0.00 | 0.00 | 0.00 | 97 | 1011.0 |
| 20260506023028 | 44 | 6 | 2.6 | 6.1 | 0.00 | 0.00 | 0.00 | 97 | 1011.0 |
| 20260506022529 | 44 | 0 | 0.9 | 4.3 | 0.00 | 0.00 | 0.00 | 97 | 1011.5 |
| 20260506022028 | 44 | 40 | 2.6 | 7.8 | 0.00 | 0.00 | 0.00 | 97 | 1011.1 |
| 20260506021529 | 44 | 2 | 4.3 | 10.4 | 0.00 | 0.00 | 0.00 | 97 | 1010.5 |
| 20260506021029 | 45 | 8 | 2.6 | 5.2 | 0.00 | 0.00 | 0.00 | 97 | 1010.3 |
| 20260506020528 | 44 | 3 | 3.5 | 5.2 | 0.00 | 0.00 | 0.00 | 97 | 1010.4 |
| 20260506020029 | 45 | 11 | 3.5 | 6.1 | 0.00 | 0.00 | 0.00 | 97 | 1010.4 |
| 20260506015529 | 45 | 14 | 1.7 | 7.0 | 0.00 | 0.00 | 0.00 | 97 | 1010.3 |
| 20260506015029 | 45 | 10 | 3.5 | 7.0 | 0.00 | 0.00 | 0.00 | 97 | 1010.0 |
| 20260506014528 | 45 | 7 | 3.5 | 7.8 | 0.00 | 0.00 | 0.00 | 97 | 1010.2 |
| 20260506014030 | 45 | 9 | 4.3 | 7.8 | 0.00 | 0.00 | 0.00 | 97 | 1010.2 |
| 20260506013529 | 45 | 0 | 3.5 | 7.0 | 0.00 | 0.00 | 0.00 | 96 | 1010.0 |
| 20260506013029 | 45 | 16 | 3.5 | 7.0 | 0.00 | 0.00 | 0.00 | 96 | 1009.6 |
| 20260506012529 | 45 | 9 | 3.5 | 8.7 | 0.00 | 0.00 | 0.00 | 96 | 1009.6 |
| 20260506012028 | 45 | 22 | 2.6 | 4.3 | 0.00 | 0.00 | 0.00 | 96 | 1010.0 |
| 20260506011530 | 45 | 21 | 1.7 | 5.2 | 0.00 | 0.00 | 0.00 | 96 | 1009.8 |
| 20260506011028 | 45 | 31 | 1.7 | 5.2 | 0.00 | 0.00 | 0.00 | 96 | 1009.7 |
| 20260506010528 | 45 | 16 | 2.6 | 6.1 | 0.00 | 0.00 | 0.00 | 96 | 1009.5 |
| 20260506010028 | 45 | 15 | 3.5 | 7.0 | 0.00 | 0.00 | 0.00 | 96 | 1009.5 |
| 20260506005529 | 45 | 0 | 1.7 | 7.8 | 0.00 | 0.00 | 0.00 | 96 | 1009.6 |
| 20260506005029 | 45 | 17 | 5.2 | 9.6 | 0.00 | 0.00 | 0.00 | 96 | 1009.7 |
| 20260506004528 | 45 | 10 | 2.6 | 7.8 | 0.00 | 0.00 | 0.00 | 96 | 1009.7 |
| 20260506004030 | 45 | 14 | 4.3 | 7.8 | 0.00 | 0.00 | 0.00 | 96 | 1009.7 |
| 20260506003529 | 45 | 11 | 3.5 | 7.8 | 0.00 | 0.00 | 0.00 | 96 | 1009.3 |
| 20260506003029 | 45 | 10 | 4.3 | 8.7 | 0.00 | 0.00 | 0.00 | 96 | 1009.3 |
| 20260506002529 | 45 | 12 | 3.5 | 7.8 | 0.00 | 0.00 | 0.00 | 96 | 1009.3 |
| 20260506002028 | 45 | 22 | 3.5 | 9.6 | 0.00 | 0.00 | 0.00 | 96 | 1009.2 |
| 20260506001529 | 45 | 10 | 6.1 | 10.4 | 0.00 | 0.00 | 0.00 | 96 | 1009.1 |
| 20260506001029 | 45 | 354 | 1.7 | 7.8 | 0.00 | 0.00 | 0.00 | 95 | 1009.1 |
| 20260506000531 | 45 | 14 | 3.5 | 7.8 | 0.00 | 0.00 | 0.00 | 95 | 1009.1 |
| 20260506000029 | 46 | 12 | 4.3 | 7.8 | 0.00 | 0.00 | 0.00 | 95 | 1009.1 |
| 20260505235528 | 46 | 13 | 4.3 | 7.8 | 0.00 | 0.00 | 0.00 | 95 | 1008.9 |
| 20260505235028 | 46 | 334 | 1.7 | 7.8 | 0.00 | 0.00 | 0.00 | 95 | 1008.9 |
| 20260505234529 | 46 | 338 | 2.6 | 7.8 | 0.00 | 0.00 | 0.00 | 95 | 1008.6 |
| 20260505234028 | 46 | 359 | 2.6 | 6.1 | 0.00 | 0.00 | 0.00 | 95 | 1008.6 |
| 20260505233529 | 46 | 348 | 3.5 | 7.8 | 0.00 | 0.00 | 0.00 | 95 | 1008.6 |
| 20260505233028 | 46 | 17 | 3.5 | 10.4 | 0.00 | 0.00 | 0.00 | 95 | 1008.4 |
| 20260505232529 | 46 | 23 | 3.5 | 7.8 | 0.00 | 0.00 | 0.00 | 95 | 1008.7 |
| 20260505232030 | 46 | 0 | 2.6 | 8.7 | 0.00 | 0.00 | 0.00 | 95 | 1008.7 |
| 20260505231529 | 46 | 0 | 4.3 | 8.7 | 0.00 | 0.00 | 0.00 | 95 | 1008.8 |
| 20260505231028 | 46 | 29 | 3.5 | 7.0 | 0.00 | 0.00 | 0.00 | 95 | 1008.7 |
| 20260505230530 | 46 | 26 | 3.5 | 7.8 | 0.00 | 0.00 | 0.00 | 95 | 1008.5 |
| 20260505230028 | 46 | 350 | 4.3 | 8.7 | 0.00 | 0.00 | 0.00 | 95 | 1008.4 |
| 20260505225529 | 46 | 7 | 2.6 | 8.7 | 0.00 | 0.00 | 0.00 | 95 | 1008.2 |
| 20260505225028 | 46 | 349 | 3.5 | 9.6 | 0.00 | 0.00 | 0.00 | 95 | 1008.2 |
| 20260505224528 | 46 | 7 | 3.5 | 11.3 | 0.00 | 0.00 | 0.00 | 95 | 1008.2 |
| 20260505224028 | 46 | 25 | 5.2 | 11.3 | 0.00 | 0.00 | 0.00 | 95 | 1008.0 |
| 20260505223528 | 47 | 345 | 2.6 | 7.8 | 0.00 | 0.00 | 0.00 | 95 | 1008.1 |
| 20260505223029 | 47 | 8 | 3.5 | 7.0 | 0.00 | 0.00 | 0.00 | 95 | 1007.8 |
| 20260505222528 | 47 | 0 | 3.5 | 7.8 | 0.00 | 0.00 | 0.00 | 95 | 1008.1 |
| 20260505222029 | 47 | 18 | 3.5 | 7.0 | 0.00 | 0.00 | 0.00 | 95 | 1008.2 |
| 20260505221529 | 47 | 2 | 1.7 | 8.7 | 0.00 | 0.00 | 0.00 | 95 | 1008.4 |
| 20260505221030 | 47 | 355 | 3.5 | 5.2 | 0.00 | 0.00 | 0.00 | 95 | 1008.4 |
| 20260505220528 | 47 | 356 | 2.6 | 7.0 | 0.00 | 0.00 | 0.00 | 94 | 1008.4 |
| 20260505220028 | 47 | 354 | 3.5 | 8.7 | 0.00 | 0.00 | 0.00 | 94 | 1008.1 |
| 20260505215529 | 47 | 17 | 4.3 | 11.3 | 0.00 | 0.00 | 0.00 | 94 | 1007.9 |
| 20260505215028 | 48 | 17 | 4.3 | 9.6 | 0.00 | 0.00 | 0.00 | 94 | 1007.7 |
| 20260505214531 | 48 | 346 | 5.2 | 8.7 | 0.00 | 0.00 | 0.00 | 94 | 1007.9 |
| 20260505214029 | 49 | 17 | 5.2 | 8.7 | 0.00 | 0.00 | 0.00 | 94 | 1007.8 |
| 20260505213528 | 49 | 7 | 4.3 | 7.8 | 0.00 | 0.00 | 0.00 | 94 | 1007.9 |
| 20260505213029 | 49 | 348 | 3.5 | 9.6 | 0.00 | 0.00 | 0.00 | 94 | 1007.9 |
| 20260505212529 | 49 | 5 | 2.6 | 7.8 | 0.00 | 0.00 | 0.00 | 94 | 1007.9 |
| 20260505212030 | 49 | 14 | 3.5 | 7.8 | 0.00 | 0.00 | 0.00 | 94 | 1007.7 |
| 20260505211528 | 49 | 21 | 4.3 | 7.8 | 0.00 | 0.00 | 0.00 | 94 | 1007.9 |
| 20260505211031 | 49 | 352 | 1.7 | 7.8 | 0.00 | 0.00 | 0.00 | 94 | 1007.9 |
| 20260505210531 | 49 | 13 | 3.5 | 7.8 | 0.00 | 0.00 | 0.00 | 94 | 1007.8 |
| 20260505210030 | 50 | 2 | 4.3 | 8.7 | 0.00 | 0.00 | 0.00 | 94 | 1007.9 |
| 20260505205529 | 50 | 5 | 2.6 | 7.0 | 0.00 | 0.00 | 0.00 | 94 | 1007.9 |
| 20260505205031 | 50 | 6 | 2.6 | 8.7 | 0.00 | 0.00 | 0.00 | 94 | 1007.9 |
| 20260505204530 | 50 | 11 | 4.3 | 8.7 | 0.00 | 0.00 | 0.00 | 95 | 1007.7 |
| 20260505204030 | 50 | 9 | 3.5 | 10.4 | 0.00 | 0.00 | 0.00 | 95 | 1007.7 |
| 20260505203530 | 50 | 358 | 5.2 | 9.6 | 0.00 | 0.00 | 0.00 | 95 | 1007.5 |
| 20260505203028 | 50 | 12 | 3.5 | 7.0 | 0.00 | 0.00 | 0.00 | 95 | 1007.8 |
| 20260505202531 | 50 | 11 | 2.6 | 7.0 | 0.00 | 0.00 | 0.00 | 95 | 1007.8 |
| 20260505202030 | 51 | 3 | 2.6 | 5.2 | 0.00 | 0.00 | 0.00 | 95 | 1007.9 |
| 20260505201531 | 51 | 13 | 3.5 | 6.1 | 0.00 | 0.00 | 0.00 | 95 | 1008.0 |
| 20260505201029 | 51 | 4 | 2.6 | 7.0 | 0.00 | 0.00 | 0.00 | 95 | 1008.0 |
| 20260505200530 | 51 | 348 | 3.5 | 7.8 | 0.00 | 0.00 | 0.00 | 95 | 1008.0 |
| 20260505200028 | 51 | 357 | 4.3 | 7.8 | 0.00 | 0.00 | 0.00 | 95 | 1007.5 |
| 20260505195531 | 51 | 6 | 2.6 | 7.8 | 0.00 | 0.00 | 0.00 | 95 | 1007.2 |
| 20260505195028 | 51 | 14 | 4.3 | 9.6 | 0.00 | 0.00 | 0.00 | 95 | 1007.1 |
| 20260505194528 | 51 | 20 | 4.3 | 8.7 | 0.00 | 0.00 | 0.00 | 95 | 1007.1 |
| 20260505194030 | 51 | 21 | 5.2 | 8.7 | 0.00 | 0.00 | 0.00 | 95 | 1007.2 |
| 20260505193530 | 51 | 355 | 3.5 | 8.7 | 0.00 | 0.00 | 0.00 | 95 | 1007.1 |
| 20260505193029 | 52 | 5 | 4.3 | 7.0 | 0.00 | 0.00 | 0.00 | 95 | 1007.2 |
| 20260505192530 | 52 | 6 | 3.5 | 8.7 | 0.00 | 0.00 | 0.00 | 95 | 1007.4 |
| 20260505192029 | 52 | 25 | 4.3 | 8.7 | 0.00 | 0.00 | 0.00 | 95 | 1007.5 |
| 20260505191529 | 52 | 354 | 2.6 | 7.8 | 0.00 | 0.00 | 0.00 | 95 | 1008.0 |
| 20260505191031 | 52 | 347 | 2.6 | 6.1 | 0.00 | 0.00 | 0.00 | 95 | 1007.9 |
| 20260505190531 | 52 | 9 | 3.5 | 7.8 | 0.00 | 0.00 | 0.00 | 95 | 1007.7 |
| 20260505190031 | 52 | 11 | 3.5 | 7.0 | 0.00 | 0.00 | 0.00 | 95 | 1007.5 |
| 20260505185530 | 52 | 12 | 3.5 | 7.8 | 0.00 | 0.00 | 0.00 | 95 | 1007.5 |
| 20260505185037 | 52 | 10 | 1.7 | 7.0 | 0.00 | 0.00 | 0.00 | 94 | 1007.4 |
| 20260505184529 | 52 | 12 | 2.6 | 7.8 | 0.00 | 0.00 | 0.00 | 94 | 1007.3 |
| 20260505184028 | 52 | 8 | 4.3 | 7.8 | 0.00 | 0.00 | 0.00 | 94 | 1007.1 |
| 20260505183531 | 53 | 13 | 3.5 | 7.8 | 0.00 | 0.00 | 0.00 | 94 | 1006.9 |
| 20260505183029 | 53 | 13 | 5.2 | 7.8 | 0.00 | 0.00 | 0.00 | 94 | 1007.0 |
| 20260505182531 | 53 | 3 | 3.5 | 7.8 | 0.00 | 0.00 | 0.00 | 93 | 1007.3 |
| 20260505182034 | 53 | 22 | 2.6 | 6.1 | 0.00 | 0.00 | 0.00 | 93 | 1007.3 |
| 20260505181531 | 53 | 28 | 3.5 | 7.8 | 0.00 | 0.00 | 0.00 | 93 | 1007.2 |
| 20260505181030 | 54 | 7 | 4.3 | 7.8 | 0.00 | 0.00 | 0.00 | 93 | 1007.2 |
| 20260505180532 | 54 | 354 | 3.5 | 7.8 | 0.00 | 0.00 | 0.00 | 93 | 1007.3 |
| 20260505180028 | 54 | 11 | 4.3 | 7.0 | 0.00 | 0.00 | 0.00 | 92 | 1007.2 |
| 20260505175531 | 54 | 11 | 3.5 | 7.0 | 0.00 | 0.00 | 0.00 | 92 | 1007.2 |
| 20260505175029 | 54 | 351 | 0.9 | 7.8 | 0.00 | 0.00 | 0.00 | 92 | 1007.3 |
| 20260505174531 | 55 | 17 | 4.3 | 8.7 | 0.00 | 0.00 | 0.00 | 92 | 1007.1 |
| 20260505174031 | 55 | 9 | 3.5 | 7.0 | 0.00 | 0.00 | 0.00 | 92 | 1007.1 |
| 20260505173531 | 55 | 13 | 1.7 | 7.0 | 0.00 | 0.00 | 0.00 | 92 | 1007.1 |
| 20260505173033 | 55 | 9 | 2.6 | 7.0 | 0.00 | 0.00 | 0.00 | 92 | 1007.1 |
| 20260505172531 | 55 | 13 | 3.5 | 7.0 | 0.00 | 0.00 | 0.00 | 92 | 1007.1 |
| 20260505172032 | 56 | 9 | 3.5 | 7.0 | 0.00 | 0.00 | 0.00 | 92 | 1007.1 |
| 20260505171531 | 56 | 341 | 1.7 | 7.0 | 0.00 | 0.00 | 0.00 | 92 | 1007.1 |
| 20260505171031 | 56 | 343 | 3.5 | 7.0 | 0.00 | 0.00 | 0.00 | 92 | 1007.1 |
| 20260505170530 | 56 | 8 | 3.5 | 7.8 | 0.00 | 0.00 | 0.00 | 92 | 1006.9 |
| 20260505170030 | 57 | 11 | 2.6 | 5.2 | 0.00 | 0.00 | 0.00 | 93 | 1007.1 |
| 20260505165529 | 57 | 14 | 1.7 | 5.2 | 0.00 | 0.00 | 0.00 | 93 | 1007.1 |
| 20260505165028 | 57 | 10 | 1.7 | 6.1 | 0.00 | 0.00 | 0.00 | 93 | 1007.0 |
| 20260505164531 | 57 | 8 | 1.7 | 5.2 | 0.00 | 0.00 | 0.00 | 93 | 1006.9 |
| 20260505163542 | 57 | 25 | 1.7 | 7.0 | 0.00 | 0.00 | 0.00 | 92 | 1006.8 |
| 20260505163033 | 58 | 28 | 4.3 | 7.0 | 0.00 | 0.00 | 0.00 | 92 | 1006.8 |
| 20260505162529 | 58 | 28 | 4.3 | 7.8 | 0.00 | 0.00 | 0.00 | 92 | 1006.8 |
| 20260505162030 | 58 | 19 | 3.5 | 7.0 | 0.00 | 0.00 | 0.00 | 92 | 1006.8 |
| 20260505161531 | 58 | 25 | 3.5 | 6.1 | 0.00 | 0.00 | 0.00 | 92 | 1006.9 |
| 20260505161030 | 59 | 12 | 2.6 | 5.2 | 0.00 | 0.00 | 0.00 | 92 | 1006.9 |
| 20260505160532 | 59 | 31 | 1.7 | 6.1 | 0.00 | 0.00 | 0.00 | 91 | 1006.8 |
| 20260505153031 | 63 | 18 | 2.6 | 5.2 | 0.00 | 0.00 | 0.00 | 89 | 1006.4 |
| 20260505152532 | 62 | 41 | 2.6 | 5.2 | 0.00 | 0.00 | 0.00 | 89 | 1006.3 |
| 20260505151530 | 62 | 39 | 2.6 | 7.8 | 0.00 | 0.00 | 0.00 | 90 | 1006.1 |
| 20260505151031 | 62 | 54 | 5.2 | 7.8 | 0.00 | 0.00 | 0.00 | 91 | 1006.1 |
| 20260505150530 | 61 | 66 | 1.7 | 7.0 | 0.00 | 0.00 | 0.00 | 92 | 1006.2 |
| 20260505140530 | 60 | 92 | 1.7 | 7.0 | 0.00 | 0.00 | 0.00 | 96 | 1006.7 |
| 20260505125030 | 58 | 14 | 1.7 | 4.3 | 0.00 | 0.00 | 0.00 | 97 | 1006.2 |
| 20260505124531 | 58 | 22 | 1.7 | 3.5 | 0.00 | 0.00 | 0.00 | 97 | 1006.3 |
| 20260505124029 | 58 | 27 | 1.7 | 2.6 | 0.00 | 0.00 | 0.00 | 97 | 1006.1 |
| 20260505123530 | 58 | 26 | 1.7 | 3.5 | 0.00 | 0.00 | 0.00 | 97 | 1006.0 |
| 20260505123030 | 58 | 4 | 0.9 | 2.6 | 0.00 | 0.00 | 0.00 | 97 | 1006.1 |
| 20260505122528 | 58 | 29 | 1.7 | 2.6 | 0.00 | 0.00 | 0.00 | 97 | 1005.9 |
| 20260505122028 | 58 | 25 | 1.7 | 2.6 | 0.00 | 0.00 | 0.00 | 97 | 1006.0 |
| 20260505121528 | 58 | 28 | 1.7 | 2.6 | 0.00 | 0.00 | 0.00 | 97 | 1005.8 |
| 20260505121031 | 58 | 18 | 1.7 | 3.5 | 0.00 | 0.00 | 0.00 | 97 | 1006.0 |
| 20260505120532 | 58 | 19 | 1.7 | 3.5 | 0.00 | 0.00 | 0.00 | 97 | 1005.9 |
| 20260505120032 | 58 | 24 | 1.7 | 2.6 | 0.00 | 0.00 | 0.00 | 96 | 1006.0 |
| 20260505115529 | 58 | 31 | 0.9 | 2.6 | 0.00 | 0.00 | 0.00 | 96 | 1005.9 |
| 20260505115029 | 58 | 336 | 1.7 | 2.6 | 0.00 | 0.00 | 0.00 | 96 | 1006.0 |
| 20260505114530 | 58 | 5 | 0.9 | 3.5 | 0.00 | 0.00 | 0.00 | 96 | 1005.8 |
| 20260505114030 | 58 | 305 | 1.7 | 6.1 | 0.00 | 0.00 | 0.00 | 96 | 1005.3 |
| 20260505113529 | 58 | 7 | 0.9 | 3.5 | 0.00 | 0.00 | 0.00 | 96 | 1005.6 |
| 20260505113031 | 58 | 162 | 0.9 | 6.1 | 0.00 | 0.00 | 0.00 | 96 | 1005.1 |
| 20260505112531 | 58 | 165 | 3.5 | 5.2 | 0.00 | 0.00 | 0.00 | 96 | 1004.9 |
| 20260505112028 | 58 | 164 | 3.5 | 7.0 | 0.00 | 0.00 | 0.00 | 96 | 1005.0 |
| 20260505111530 | 58 | 168 | 3.5 | 6.1 | 0.00 | 0.00 | 0.00 | 96 | 1004.9 |
| 20260505111028 | 58 | 163 | 4.3 | 7.8 | 0.00 | 0.00 | 0.00 | 96 | 1005.1 |
| 20260505110528 | 59 | 193 | 3.5 | 7.8 | 0.00 | 0.00 | 0.00 | 96 | 1005.0 |
| 20260505102029 | 59 | 157 | 4.3 | 10.4 | 0.00 | 0.00 | 0.00 | 95 | 1005.3 |
| 20260505101532 | 59 | 194 | 6.1 | 11.3 | 0.00 | 0.00 | 0.00 | 95 | 1005.6 |
| 20260505101028 | 59 | 188 | 7.0 | 11.3 | 0.00 | 0.00 | 0.00 | 95 | 1005.2 |
| 20260505100529 | 59 | 202 | 3.5 | 7.0 | 0.00 | 0.00 | 0.00 | 95 | 1005.1 |
| 20260505100031 | 59 | 160 | 4.3 | 7.8 | 0.00 | 0.00 | 0.00 | 95 | 1005.1 |
| 20260505095528 | 59 | 168 | 3.5 | 7.8 | 0.00 | 0.00 | 0.00 | 95 | 1005.0 |
| 20260505095030 | 59 | 147 | 3.5 | 7.0 | 0.00 | 0.00 | 0.00 | 95 | 1005.1 |
| 20260505094528 | 59 | 155 | 3.5 | 7.0 | 0.00 | 0.00 | 0.00 | 95 | 1005.5 |
| 20260505094028 | 59 | 164 | 3.5 | 6.1 | 0.00 | 0.00 | 0.00 | 95 | 1005.6 |
| 20260505093531 | 59 | 166 | 3.5 | 5.2 | 0.00 | 0.00 | 0.00 | 95 | 1005.7 |
| 20260505093031 | 59 | 144 | 1.7 | 2.6 | 0.00 | 0.00 | 0.00 | 94 | 1005.7 |
| 20260505092529 | 59 | 133 | 0.0 | 2.6 | 0.00 | 0.00 | 0.00 | 94 | 1005.9 |
| 20260505092029 | 59 | 131 | 1.7 | 3.5 | 0.00 | 0.00 | 0.00 | 94 | 1006.0 |
| 20260505091530 | 59 | 134 | 2.6 | 3.5 | 0.00 | 0.00 | 0.00 | 94 | 1006.0 |
| 20260505091028 | 59 | 44 | 0.0 | 2.6 | 0.00 | 0.00 | 0.00 | 94 | 1006.0 |
| 20260505090531 | 59 | 36 | 0.9 | 1.7 | 0.00 | 0.00 | 0.00 | 94 | 1006.1 |
| 20260505090030 | 59 | 346 | 0.9 | 1.7 | 0.00 | 0.00 | 0.00 | 94 | 1006.2 |
| 20260505085528 | 59 | 202 | 0.0 | 3.5 | 0.00 | 0.00 | 0.00 | 94 | 1006.7 |
| 20260505085030 | 59 | 275 | 1.7 | 3.5 | 0.00 | 0.00 | 0.00 | 93 | 1007.0 |
| 20260505084530 | 59 | 257 | 1.7 | 3.5 | 0.00 | 0.00 | 0.00 | 93 | 1006.8 |
| 20260505084030 | 59 | 261 | 3.5 | 3.5 | 0.00 | 0.00 | 0.00 | 93 | 1006.7 |
| 20260505083528 | 60 | 117 | 1.7 | 4.3 | 0.00 | 0.00 | 0.00 | 93 | 1005.8 |
| 20260505083029 | 60 | 175 | 0.9 | 3.5 | 0.00 | 0.00 | 0.00 | 92 | 1006.3 |
| 20260505082528 | 60 | 219 | 1.7 | 2.6 | 0.00 | 0.00 | 0.00 | 92 | 1006.2 |
| 20260505082030 | 60 | 328 | 0.0 | 1.7 | 0.00 | 0.00 | 0.00 | 92 | 1006.1 |
| 20260505081530 | 60 | 0 | 0.0 | 4.3 | 0.00 | 0.00 | 0.00 | 92 | 1006.1 |
| 20260505081028 | 60 | 227 | 3.5 | 5.2 | 0.00 | 0.00 | 0.00 | 91 | 1006.7 |
| 20260505080529 | 60 | 231 | 1.7 | 5.2 | 0.00 | 0.00 | 0.00 | 90 | 1006.7 |
| 20260505080030 | 60 | 214 | 3.5 | 6.1 | 0.00 | 0.00 | 0.00 | 90 | 1007.1 |
| 20260505075528 | 60 | 256 | 5.2 | 7.8 | 0.00 | 0.00 | 0.00 | 90 | 1007.1 |
| 20260505075029 | 60 | 245 | 3.5 | 8.7 | 0.00 | 0.00 | 0.00 | 90 | 1007.0 |
| 20260505074529 | 60 | 260 | 4.3 | 7.0 | 0.00 | 0.00 | 0.00 | 90 | 1006.9 |
| 20260505074031 | 60 | 256 | 3.5 | 4.3 | 0.00 | 0.00 | 0.00 | 89 | 1006.8 |
| 20260505073531 | 60 | 288 | 2.6 | 5.2 | 0.00 | 0.00 | 0.00 | 88 | 1007.0 |
| 20260505073028 | 60 | 250 | 3.5 | 7.0 | 0.00 | 0.00 | 0.00 | 87 | 1006.7 |
| 20260505072530 | 60 | 230 | 6.1 | 10.4 | 0.00 | 0.00 | 0.00 | 87 | 1006.9 |
| 20260505072030 | 60 | 234 | 5.2 | 8.7 | 0.00 | 0.00 | 0.00 | 86 | 1006.8 |
| 20260505071529 | 61 | 208 | 7.0 | 12.2 | 0.00 | 0.00 | 0.00 | 86 | 1006.9 |
| 20260505071036 | 61 | 208 | 7.8 | 11.3 | 0.00 | 0.00 | 0.00 | 85 | 1006.6 |
| 20260505070529 | 61 | 217 | 4.3 | 9.6 | 0.00 | 0.00 | 0.00 | 85 | 1006.5 |
| 20260505070030 | 61 | 211 | 5.2 | 10.4 | 0.00 | 0.00 | 0.00 | 83 | 1006.6 |
| 20260505065531 | 61 | 214 | 6.1 | 7.8 | 0.00 | 0.00 | 0.00 | 82 | 1006.5 |
| 20260505065028 | 62 | 210 | 6.1 | 12.2 | 0.00 | 0.00 | 0.00 | 81 | 1006.4 |
| 20260505064529 | 62 | 211 | 8.7 | 12.2 | 0.00 | 0.00 | 0.00 | 79 | 1006.2 |
| 20260505064030 | 62 | 204 | 9.6 | 12.2 | 0.00 | 0.00 | 0.00 | 79 | 1006.1 |
| 20260505063528 | 63 | 193 | 7.8 | 13.0 | 0.00 | 0.00 | 0.00 | 78 | 1005.9 |
| 20260505063030 | 63 | 196 | 6.1 | 10.4 | 0.00 | 0.00 | 0.00 | 76 | 1006.0 |
| 20260505062529 | 64 | 192 | 5.2 | 9.6 | 0.00 | 0.00 | 0.00 | 74 | 1006.1 |
| 20260505062030 | 64 | 174 | 6.1 | 8.7 | 0.00 | 0.00 | 0.00 | 74 | 1006.1 |
| 20260505061530 | 64 | 187 | 5.2 | 7.8 | 0.00 | 0.00 | 0.00 | 73 | 1006.1 |
| 20260505061029 | 64 | 152 | 2.6 | 7.0 | 0.00 | 0.00 | 0.00 | 72 | 1006.3 |
| 20260505060530 | 64 | 177 | 2.6 | 7.8 | 0.00 | 0.00 | 0.00 | 72 | 1006.4 |
| 20260505060030 | 64 | 206 | 2.6 | 8.7 | 0.00 | 0.00 | 0.00 | 71 | 1006.5 |
| 20260505055529 | 64 | 177 | 3.5 | 7.0 | 0.00 | 0.00 | 0.00 | 71 | 1006.6 |
| 20260505055028 | 64 | 165 | 4.3 | 7.8 | 0.00 | 0.00 | 0.00 | 71 | 1006.6 |
| 20260505054529 | 64 | 146 | 2.6 | 6.1 | 0.00 | 0.00 | 0.00 | 71 | 1006.6 |
| 20260505054029 | 65 | 178 | 1.7 | 6.1 | 0.00 | 0.00 | 0.00 | 71 | 1006.5 |
| 20260505053531 | 65 | 142 | 2.6 | 6.1 | 0.00 | 0.00 | 0.00 | 70 | 1006.6 |
| 20260505053031 | 65 | 162 | 2.6 | 7.0 | 0.00 | 0.00 | 0.00 | 70 | 1006.5 |
| 20260505052529 | 65 | 204 | 0.9 | 6.1 | 0.00 | 0.00 | 0.00 | 70 | 1006.6 |
| 20260505052029 | 65 | 136 | 2.6 | 4.3 | 0.00 | 0.00 | 0.00 | 70 | 1006.3 |
| 20260505051528 | 65 | 147 | 1.7 | 6.1 | 0.00 | 0.00 | 0.00 | 70 | 1006.2 |
| 20260505051029 | 65 | 39 | 0.9 | 5.2 | 0.00 | 0.00 | 0.00 | 70 | 1006.2 |
| 20260505050528 | 65 | 154 | 0.0 | 4.3 | 0.00 | 0.00 | 0.00 | 70 | 1006.3 |
| 20260505041528 | 66 | 171 | 2.6 | 7.0 | 0.00 | 0.00 | 0.00 | 68 | 1006.7 |
| 20260505041029 | 66 | 149 | 2.6 | 5.2 | 0.00 | 0.00 | 0.00 | 68 | 1006.8 |
| 20260505040528 | 66 | 159 | 1.7 | 7.8 | 0.00 | 0.00 | 0.00 | 68 | 1007.0 |
| 20260505040028 | 66 | 173 | 3.5 | 7.8 | 0.00 | 0.00 | 0.00 | 68 | 1007.1 |
| 20260505035530 | 66 | 198 | 4.3 | 7.8 | 0.00 | 0.00 | 0.00 | 67 | 1007.1 |
| 20260505035029 | 66 | 206 | 3.5 | 4.3 | 0.00 | 0.00 | 0.00 | 67 | 1007.1 |
| 20260505034528 | 67 | 185 | 1.7 | 6.1 | 0.00 | 0.00 | 0.00 | 66 | 1007.2 |